Regional Weather Roundup
Issued by NWS

Home | Current Version | Previous Version | Text Only | Print | Product List | Glossary On
Versions: 1 2 3 4 5 6 7 8 9 10 11 12 13 14 15 16 17 18 19 20 21 22 23 24 25 26 27 28 29 30 31 32 33 34 35 36 37 38 39 40 41 42 43 44 45 46 47 48 49 50
000
ASUS44 KFWD 230110
RWRTX
NORTH TEXAS HOURLY WEATHER ROUNDUP
NATIONAL WEATHER SERVICE FORT WORTH TX
800 PM CDT TUE MAY 22 2018

NOTE: "FAIR" INDICATES FEW OR NO CLOUDS BELOW 12,000 FEET WITH NO
SIGNIFICANT WEATHER AND/OR OBSTRUCTIONS TO VISIBILITY.

TXZ118-119-230200-
DALLAS/FORT WORTH METROPLEX

CITY           SKY/WX    TMP DP  RH WIND       PRES   REMARKS
DFW AIRPORT    MOCLDY    84  64  50 S8        29.92R
DALLAS LOVE    MOCLDY    85  67  54 SE15      29.93R
FTW MEACHAM    FAIR      86  66  51 SE12      29.92S
DAL-EXECUTIVE  FAIR      84  68  58 SE12      29.93R
FTW-ALLIANCE   MOCLDY    85  65  51 SE8       29.92S
FTW-NAS-JRB    FAIR      85  64  49 SE10      29.93R
FTW-SPINKS     FAIR      82  68  62 SE3       29.95R
ARLINGTON      FAIR      83  68  60 SE10      29.93R
GRAND PRAIRIE  CLEAR     84  66  54 SE6       29.94R
ADDISON        PTCLDY    84  66  54 SE10      29.94R
MESQUITE       CLEAR     82  66  57 SE8       29.94S
LANCASTER      FAIR      81  69  65 SE6       29.95R
$$

TXZ091>094-102>105-117-120-121-131>134-230200-
NORTH CENTRAL TEXAS

CITY           SKY/WX    TMP DP  RH WIND       PRES   REMARKS
SHRMAN/DENISON FAIR      82  65  58 S7        29.95S
GAINESVILLE    FAIR      80  67  64 SE5       29.96R
BOWIE          FAIR      80  68  67 CALM      29.95R
BRIDGEPORT     FAIR      82  65  57 SE5       29.95R
DECATUR        FAIR      82  66  59 CALM      29.94R
DENTON         FAIR      84  65  52 SE7       29.93R
MCKINNEY       FAIR      82  69  64 SE9       29.94R
BONHAM         FAIR      81  67  63 S6        29.95S
GREENVILLE     FAIR      82  70  65 CALM      29.96R
ROCKWALL       FAIR      82  69  65 SE7       29.95R
TERRELL        FAIR      82  66  58 SE6       29.95S
WAXAHACHIE     FAIR      81  70  69 E3        29.95S
CLEBURNE       FAIR      82  68  61 SE9       29.95S
GRANBURY       FAIR      85  65  51 SE8       29.94R
$$

TXZ083>090-098>101-113>116-127>130-139>142-154-155-230200-
WESTERN NORTH TEXAS

CITY           SKY/WX    TMP DP  RH WIND       PRES   REMARKS
WICHITA FALLS  FAIR      81  65  58 SE9       29.92R
WF-KICKAPOO    FAIR      82  66  58 SE7       29.95R
VERNON         FAIR      85  65  51 SE12      29.93R
ABILENE        FAIR      84  59  42 E12       29.93R
ABILENE-DYESS  FAIR      85  56  36 SE12      29.92S
GRAHAM         FAIR      82  63  51 CALM      29.92R
BRECKENRIDGE   FAIR      86  60  40 SE8       29.92R
CISCO          FAIR      82  63  51 SE13G20   29.94R
EASTLAND       FAIR      82  63  52 SE10G17   29.94R
RANGER         FAIR      82  63  53 SE13      29.95R
MINERAL WELLS  FAIR      80  65  59 SE6       29.92R
STEPHENVILLE   FAIR      82  65  57 SE7       29.97R
COMANCHE       FAIR      81  66  58 SE12      29.94R
BROWNWOOD      FAIR      82  63  51 SE12G21   29.92R
COLEMAN        FAIR      86  58  37 SE14      29.93R
BRADY          MOCLDY    84  59  42 SE12G20   29.93R
$$

TXZ143>147-156>162-174-175-230200-
CENTRAL TEXAS

CITY           SKY/WX    TMP DP  RH WIND       PRES   REMARKS
WACO           FAIR      83  64  52 SE12      29.93R
WACO-TSTC      PTCLDY    82  66  57 SE6       29.93R
WACO-MCGREGOR  FAIR      82  67  60 SE7       29.94R
HILLSBORO      FAIR      81  72  73 E6        29.94R
CORSICANA      FAIR      80  68  66 E6        29.96R
MEXIA          FAIR      80  71  74 E9        29.94S
HEARNE         FAIR      83  67  58 SE3       29.94S
CAMERON        FAIR      82  69  66 SE3       29.93R
TEMPLE         FAIR      81  70  69 E9        29.94R
KILLEEN        FAIR      81  64  55 SE12      29.92R
KILLEEN-SKYLRK FAIR      82  66  58 SE9       29.94R
FORT HOOD      FAIR      82  65  56 SE10      29.90R
GATESVILLE     FAIR      81  68  65 CALM      29.95R
HAMILTON       FAIR      82  66  59 SE10      29.95R
LAMPASAS       FAIR      82  66  59 SE7       29.93R
$$

TXZ095>097-106>112-122>126-135>138-148>153-164>167-230200-
EAST TEXAS

CITY           SKY/WX    TMP DP  RH WIND       PRES   REMARKS
PARIS          FAIR      81  69  67 E6        29.97S
SULPHUR SPRNGS FAIR      82  64  55 SE5       29.98S
MOUNT PLEASANT FAIR      79  68  69 SE5       29.98R
GILMER         MOCLDY    77  64  63 E6        29.98R
MINEOLA        FAIR      79  72  78 E3        29.96S
TYLER          FAIR      82  69  64 CALM      29.96R
LONGVIEW       FAIR      80  73  79 CALM      29.96R
MARSHALL       FAIR      75  66  72 CALM      29.99S
ATHENS         FAIR      79  68  69 CALM      29.95R
PALESTINE      FAIR      81  70  68 CALM      29.96S
JACKSONVILLE   FAIR      78  69  73 NE5       29.99R
HENDERSON      FAIR      80  71  74 CALM      29.97S
CENTER         FAIR      75  72  88 CALM      29.97S
NACOGDOCHES      N/A     81  67  62 E5        29.96R
LUFKIN         FAIR      82  69  64 SE5       29.94R
$$

SUPPLEMENTAL OBSERVATIONS (NWS FORT WORTH AREA)

CITY           SKY/WX    TMP DP  RH WIND       PRES   REMARKS
CADDO GRASSLND   N/A     79  68  69 E2          N/A
LBJ GRASSLAND    N/A     81  66  61 SE3         N/A
POSSUM KINGDOM   N/A     84  63  48 SE7         N/A
GRANBURY         N/A     84  64  51 SE9         N/A
MCGREGOR         N/A     81  66  61 SE6         N/A
TEMPLE           N/A     81  70  69 E7          N/A
PALESTINE        N/A     81  72  74 CALM        N/A
$$

SUPPLEMENTAL OBSERVATIONS (NWS NORMAN AREA)

CITY           SKY/WX    TMP DP  RH WIND       PRES   REMARKS
GOODLETT         N/A     85  60  43 SE12      29.92S
ODELL            N/A     82  65  56 E12       29.94R
CROWELL          N/A     84  65  53 E8        29.93R
KNOX CITY        N/A     85  62  45 SE10      29.92S
SEYMOUR          N/A     83  64  52 E8        29.92R
MILLERS CREEK    N/A     84  61  45 SE6         N/A
$$

SUPPLEMENTAL OBSERVATIONS (NWS SAN ANGELO AREA)

CITY           SKY/WX    TMP DP  RH WIND       PRES   REMARKS
WEINERT          N/A     84  62  48 SE8       29.93S
HASKELL          N/A     84  55  36 SE8       29.92S
THROCKMORTON     N/A     84  64  49 SE9       29.93S
STAMFORD         N/A     86  60  41 S12       29.93S
CLYDE            N/A     83  60  46 SE6       29.96S
HAMBY            N/A     84  57  39 SE7         N/A
COLORADO BEND    N/A     82  64  54 SE9G17      N/A
$$

SUPPLEMENTAL OBSERVATIONS (NWS SHREVEPORT AREA)

CITY           SKY/WX    TMP DP  RH WIND       PRES   REMARKS
TEXARKANA        N/A     73  64  73 NE2G24      N/A
LINDEN           N/A     79  68  69 E2          N/A
LUFKIN           N/A     82  68  61 MISG        N/A
N SABINE NF      N/A     75  72  88 MISG        N/A
$$

SUPPLEMENTAL OBSERVATIONS ARE A COLLECTION OF AUTOMATED INSTRUMENTS
THAT ARE MAINTAINED BY A VARIETY OF FEDERAL AND STATE AGENCIES.
CERTAIN ELEMENTS...SUCH AS HUMIDITY VALUES AND SUSTAINED WIND
SPEEDS...MAY BE APPROXIMATED.





USA.gov is the U.S. government's official web portal to all federal, state and local government web resources and services.